{"data":{"norad_id":65642,"epoch":"2026-09-20T21:20:44.827008Z","epoch_age_seconds":75164,"freshness":"FRESH","line1":"1 65642U 25210W   26263.88940772  .00037715  00000+0  11212-2 0  9998","line2":"2 65642  53.1570 115.6718 0001556  82.4604 277.6575 15.34416214 57682","mean_motion":15.34416214,"eccentricity":0.0001556,"inclination_deg":53.157,"raan_deg":115.6718,"arg_perigee_deg":82.4604,"mean_anomaly_deg":277.6575,"bstar":0.0011212,"rev_number":5768,"period_min":93.846766402848,"perigee_km":461.59062196366,"apogee_km":463.71947644938,"semimajor_km":6840.7920492065,"source":"CELESTRAK","updated_at":"2026-09-21T09:00:35.676940Z"}}